Retour au catalogue

ARIANE 2 DEB

LostGTO
NORAD 42484·DEBRIS·🇫🇷 France

Lancé Jan 27, 1989 depuis Guiana Space Centre

Loading…

TLE

PériméSource: Space-Track

Époque: Sep 18, 2018, 00:02 UTC

1 42484U 89006CL  18261.00202566 -.00002813  00000-0 -25302-1 0  9993
2 42484  10.2482 105.7447 7131884  29.7872 356.5380  2.31175876 31257

Suivez ARIANE 2 DEB en temps réel avec AllMySat

Download on the App Store